This is the latest recevied weather packets stored in our database for station/object PP5KJ-13. If no packets are shown the sender has not sent any weather packets the latest 10 day(s).
| Time | Temp. | Humidity | Pressure | Rain* | Wind** | Luminosity | Snow |
|---|---|---|---|---|---|---|---|
| 1787849740 | 26.67° C | 5% | 1013 hPa | 0 mm | 6.26 m/s, 360° | - | - |
| 1787848540 | 26.67° C | 5% | 1012 hPa | 0 mm | 6.26 m/s, 360° | - | - |
| 1787847940 | 26.11° C | 5% | 1014 hPa | 0 mm | 6.26 m/s, 360° | - | - |
| 1787847340 | 26.67° C | 5% | 1014 hPa | 0 mm | 6.26 m/s, 360° | - | - |
| 1787846740 | 26.11° C | 5% | 1013 hPa | 0 mm | 6.71 m/s, 360° | - | - |
| 1787846140 | 25° C | 5% | 1014 hPa | 0 mm | 6.71 m/s, 360° | - | - |
| 1787845540 | 25° C | 5% | 1014 hPa | 0 mm | 6.71 m/s, 360° | - | - |
| 1787844940 | 26.11° C | 5% | 1014 hPa | 0 mm | 6.71 m/s, 360° | - | - |
| 1787844346 | 25.56° C | 5% | 1015 hPa | 0 mm | 6.71 m/s, 360° | - | - |
| 1787843740 | 25.56° C | 5% | 1015 hPa | 0 mm | 6.71 m/s, 360° | - | - |
| 1787843140 | 25.56° C | 5% | 1014 hPa | 0 mm | 6.26 m/s, 350° | - | - |
| 1787841940 | 25.56° C | 5% | 1015 hPa | 0 mm | 6.26 m/s, 350° | - | - |
| 1787841340 | 25.56° C | 5% | 1015 hPa | 0 mm | 6.26 m/s, 350° | - | - |
| 1787840740 | 25° C | 5% | 1016 hPa | 0 mm | 6.26 m/s, 350° | - | - |
| 1787840140 | 25° C | 5% | 1016 hPa | 0 mm | 6.26 m/s, 350° | - | - |
| 1787839540 | 24.44° C | 5% | 1016 hPa | 0 mm | 3.58 m/s, 357° | - | - |
| 1787838940 | 24.44° C | 5% | 1016 hPa | 0 mm | 5.81 m/s, 340° | - | - |
| 1787838340 | 23.89° C | 5% | 1016 hPa | 0 mm | 5.81 m/s, 340° | - | - |
| 1787837740 | 23.33° C | 5% | 1016 hPa | 0 mm | 5.81 m/s, 340° | - | - |
| 1787837140 | 23.33° C | 5% | 1016 hPa | 0 mm | 5.81 m/s, 340° | - | - |
| 1787836540 | 23.33° C | 5% | 1016 hPa | 0 mm | 5.81 m/s, 340° | - | - |
| 1787835940 | 22.78° C | 5% | 1016 hPa | 0 mm | 4.92 m/s, 330° | - | - |
| 1787835340 | 22.78° C | 5% | 1016 hPa | 0 mm | 4.92 m/s, 330° | - | - |
| 1787834740 | 22.78° C | 5% | 1016 hPa | 0 mm | 4.92 m/s, 330° | - | - |
| 1787834140 | 22.78° C | 5% | 1016 hPa | 0 mm | 4.92 m/s, 330° | - | - |
* Rain latest hour (hover to see other rain measurements)
** Current wind speed in m/s (hover to see current wind gust speed)